Location: Klinovec
(50.3970°N, 12.9600°E)
Time: 19:55:23
(UTC+01:00)

N. Korean satellite - Pass Details

Date: 19 November 2019
Orbit: 456 x 506 km, 97.2° (Epoch: 06 December)

Event Time Altitude Azimuth Distance (km) Brightness Sun altitude
Rises 17:45:22 0° 191° (SSW) 2,563 10.6 -13.6°
Reaches altitude 10° 17:47:37 10° 203° (SSW) 1,694 9.8 -14.0°
Maximum altitude 17:50:50 29° 265° (W) 948 8.9 -14.5°
Drops below altitude 10° 17:54:07 10° 327° (NNW) 1,726 9.6 -15.0°
Sets 17:56:25 0° 339° (NNW) 2,620 10.4 -15.4°
